STARLINK-33565, 62288

Orbit data source: Space-Track

STARLINK-33565, 62288 is a payload satellite owned by SpaceX/Seattle (US) in LEO that was launched on Sun, 08 Dec 2024 UTC via an FALCON 9 launch vehicle from the Air Force Eastern Test Range (AFETR). Payload-class satellites include a variety of spacecraft equipped with specific instruments for various scientific and technological missions. These include communications satellites like Starlink; space stations such as the ISS; scientific satellites like the Hubble; Earth observation satellites from companies like Planet Labs, Umbra, and HawkEye 360; GPS; miniature CubeSats for education and research; and military/defense satellites.

Loading next visibility...
Identifier
62288, 2024-237X
Orbit
LEO
Country
Flag of USUS
Related business
Manufacturer
SpaceX/Seattle
Mission
Operational Commercial Communications
Bus & Motor
STARLINK V2MO, Unknown motor
Mass
530 kg wet, ~500 kg dry
Launch date (UTC)
2024-12-08 (10 months ago)
Launch vehicle
FALCON 9
Launch site
Air Force Eastern Test Range (AFETR)
Object type
Payload
Rocket body
Debris
Shape & HBR
Box + 2 Pan, 17.7 m
Radar Cross Section
36.964 m², Large (>1 m²)

Expand to show TLE details & history
Last TLE update: 12 hours ago

TLE from 12 hours ago
0 STARLINK-33565
1 62288U 24237X   25286.51191603  .00035133  00000-0  12792-2 0  9991
2 62288  43.0009 316.2424 0000738 252.8581 107.2190 15.27604487 48810
Epoch: 2025-10-13T12:17Z
TLE epoch observation values (Epoch: 2025-10-13T12:17:09.544Z)
Latitude
0.00001°
Longitude
109.639°
Altitude
482.901 km
Speed
7.626 km/s
True Right ascension
21h 04m 58s
True Declination
0° 00' 00"
Sunlit
Object was in full shadow at epoch
Visualization orbit readout
Latitude
Unknown
Longitude
Unknown
Altitude
Unknown
Speed
Unknown
Apparent Right ascension
Unknown
Apparent Declination
Unknown
Sunlit
N/A
Visualization observer readout
Local Sidereal Time
18:37:50
Azimuth
Unknown
Elevation
Unknown
Doppler factor
Unknown
Orbital elements
Apogee altitude
485.427 km
Perigee altitude
484.414 km
Semi-major axis
6,863.058 km
Eccentricity
0.00007
Inclination
43.0009°
RAAN
316.2424°
Arg. of periapsis
252.8581°
True anomaly
107.22708°
Mean anomaly
107.219°
Eccentric anomaly
107.22304°
Mean motion
3.81739 °/min
Orbital period
94.31 mins
BSTAR
0.0012792
Loading maneuver chart data...
Computing Atmospheric mass density...
Loading historical data...
Loading historical data...
Loading historical data...
Loading historical data...
Loading historical data...
Loading historical data...
Loading historical data...

Documentation

Showing up to 5 results
|